Regional Weather Roundup
Issued by NWS Sioux Falls, SD

Home | Current Version | Previous Version | Graphics & Text | Print | Product List | Glossary On
Versions: 1 2 3 4 5 6 7 8 9 10 11 12 13 14 15 16 17 18 19 20 21 22 23 24 25 26 27 28 29 30 31 32 33 34 35 36 37 38 39 40 41 42 43 44 45 46 47 48 49 50
769
ASUS43 KFSD 292010
RWRFSD

WEATHER ROUNDUP FOR SE SOUTH DAKOTA/SW MINNESOTA/NW IOWA
NATIONAL WEATHER SERVICE SIOUX FALLS SD
300 PM CDT MON MAY 29 2017

NOTE: "FAIR" INDICATES FEW OR NO CLOUDS BELOW 12,000 FEET WITH NO
SIGNIFICANT WEATHER AND OR OBSTRUCTIONS TO VISIBILITY.


SDZ038>040-050-052>070-292100-
SOUTHEAST SOUTH DAKOTA

CITY           SKY/WX    TMP DP  RH WIND       PRES   REMARKS
BROOKINGS      CLOUDY    58  47  66 W21G30    29.97S
CHAMBERLAIN    CLOUDY    67  41  39 W16G22    30.06F
HURON          CLOUDY    62  44  51 NW14G24   30.02S
MADISON        CLOUDY    57  46  67 NW25      30.00S
MITCHELL       LGT RAIN  64  44  48 NW18G26   30.04S
SIOUX FALLS    PTSUNNY   64  45  49 NW22G28   29.98S
WINNER         MOCLDY    66  39  37 NW17G30   30.08F
YANKTON        MOSUNNY   67  45  45 NW25G33   30.01F
$$

MNZ071-072-080-081-089-090-097-098-292100-
SOUTHWEST MINNESOTA

CITY           SKY/WX    TMP DP  RH WIND       PRES   REMARKS
FAIRMONT       CLOUDY    60  47  61 NW14      29.92R
JACKSON        CLOUDY    61  45  55 NW16G25   29.94S
LUVERNE        MOSUNNY   63  41  45 NW25      29.97F
MARSHALL       LGT RAIN  55  50  83 NW21      29.94R
MONTEVIDEO     PTSUNNY   63  48  59 N17G24    29.92S
PIPESTONE      LGT RAIN  57  45  62 NW16G32   29.97S
REDWOOD FALLS  PTSUNNY   60  46  59 NW15G26   29.90S
TRACY          PTSUNNY   59  53  78 W13G18    29.94F
WINDOM         MOSUNNY   57  45  62 NW26G37   29.94R
WORTHINGTON    CLOUDY    60  46  59 NW26G36   29.95R
$$

IAZ001>003-012>014-020>022-031-032-NEZ013-014-SDZ071-292100-
NORTHWEST IOWA

CITY           SKY/WX    TMP DP  RH WIND       PRES   REMARKS
CHEROKEE       PTSUNNY   65  43  43 NW18G26   29.97S
DENISON        PTSUNNY   70  41  35 W18G24    30.00S
ESTHERVILLE    CLOUDY    65  46  50 W21G28    29.93S
LE MARS        MOSUNNY   68  43  40 W21G28    30.00S
ORANGE CITY    MOSUNNY   66  46  48 NW20G32   29.98S
SHELDON        MOSUNNY   68  41  37 NW24G31   29.95S
SIOUX CITY     PTSUNNY   69  46  43 NW22G33   29.98S
SPENCER        PTSUNNY   67  44  43 NW20G30   29.95S
STORM LAKE     MOSUNNY   68  41  37 NW24G31   29.97S
$$

ABBREVIATIONS USED IN REMARKS
   TC - TEMPERATURE IN CELSIUS
  WCI - WIND CHILL INDEX
   HX - HEAT INDEX
  VSB - VISIBILITY





USA.gov is the U.S. government's official web portal to all federal, state and local government web resources and services.